SL-16 DEB, 22617

Orbit data source: Space-Track

SL-16 DEB, 22617 is space debris in LEO originally from a launch on Fri, 26 Mar 1993 UTC launched from the Tyuratam Missile And Space Complex (TTMTR). Debris objects in space refer to the collection of defunct objects orbiting the Earth. Examples of debris include non-operational satellites, rocket bodies, and fragments generated from explosions, collisions, or faulty payload assembly.

Loading next visibility...
Identifier
22617, 1993-016AB
Orbit
LEO
Country
Flag of CISCIS
Related business
Manufacturer
Unknown
Mission
Spacecraft
Bus & Motor
Unknown
Mass
Unknown
Launch date (UTC)
1993-03-26 (33 years ago)
Launch vehicle
Unknown
Launch site
Tyuratam Missile And Space Complex (TTMTR)
Object type
Payload
Rocket body
Debris
Shape & HBR
Unknown shape, 0.1 m
Radar Cross Section
Small (<0.1 m²)

Expand to show TLE details & history
Last TLE update: 9 hours ago

TLE from 9 hours ago
0 SL-16 DEB
1 22617U 93016AB  25343.13515608  .00000860  00000-0  65778-3 0  9993
2 22617  70.9976 127.4043 0131338  67.0537 104.6455 13.92178999654060
Epoch: 2025-12-09T03:14Z
TLE epoch observation values (Epoch: 2025-12-09T03:14:37.485Z)
Latitude
6.40959°
Longitude
178.41838°
Altitude
948.192 km
Speed
7.366 km/s
True Right ascension
20h 20m 47s
True Declination
6° 22' 21"
Sunlit
Object was in daylight at epoch
Visualization orbit readout
Latitude
Unknown
Longitude
Unknown
Altitude
Unknown
Speed
Unknown
Apparent Right ascension
Unknown
Apparent Declination
Unknown
Sunlit
N/A
Visualization observer readout
Local Sidereal Time
10:55:08
Azimuth
Unknown
Elevation
Unknown
Doppler factor
Unknown
Orbital elements
Apogee altitude
1,014.79 km
Perigee altitude
823.113 km
Semi-major axis
7,297.089 km
Eccentricity
0.01313
Inclination
70.9976°
RAAN
127.4043°
Arg. of periapsis
67.0537°
True anomaly
106.09545°
Mean anomaly
104.6455°
Eccentric anomaly
105.37109°
Mean motion
3.48192 °/min
Orbital period
103.39 mins
BSTAR
0.00065778
Loading maneuver chart data...
Computing Atmospheric mass density...
Loading historical data...
Loading historical data...
Loading historical data...
Loading historical data...
Loading historical data...
Loading historical data...
Loading historical data...

Documentation

Showing up to 5 results
|